UAL271 KBOS-KEWR

Flight info

Callsign UAL271
Flight time N/A
Altitude 16000
Route PATSS7 PATSS NELIE FLOSI4
Aircraft B738/M-SDE2E3FGHIRWXY/LB1

Departure

Time 2026-05-06 19:28
Airport Boston Logan International Airport (KBOS)

Arrival

Time N/A
Airport Newark Liberty International Airport (KEWR)
Time Latitude Longitude Altitude Speed Heading
2026-05-06 18:56 42.36263 -71.01726 20 ft 0 kts 304°
2026-05-06 19:16 42.36260 -71.01721 20 ft 3 kts 303°
2026-05-06 19:16 42.36247 -71.01690 21 ft 4 kts 295°
2026-05-06 19:17 42.36237 -71.01656 21 ft 4 kts 287°
2026-05-06 19:17 42.36232 -71.01633 20 ft 4 kts 282°
2026-05-06 19:17 42.36227 -71.01584 20 ft 4 kts 271°
2026-05-06 19:17 42.36227 -71.01560 20 ft 4 kts 266°
2026-05-06 19:18 42.36230 -71.01524 18 ft 4 kts 256°
2026-05-06 19:18 42.36239 -71.01490 19 ft 4 kts 237°
2026-05-06 19:18 42.36253 -71.01470 18 ft 1 kts 200°
2026-05-06 19:22 42.36249 -71.01472 18 ft 4 kts 200°
2026-05-06 19:22 42.36211 -71.01482 19 ft 8 kts 171°
2026-05-06 19:22 42.36198 -71.01414 17 ft 10 kts 50°
2026-05-06 19:23 42.36265 -71.01368 15 ft 12 kts 20°
2026-05-06 19:23 42.36360 -71.01322 15 ft 17 kts 20°
2026-05-06 19:23 42.36471 -71.01267 14 ft 17 kts 19°
2026-05-06 19:23 42.36581 -71.01213 15 ft 17 kts 19°
2026-05-06 19:24 42.36688 -71.01162 16 ft 16 kts 19°
2026-05-06 19:24 42.36791 -71.01153 14 ft 16 kts 333°
2026-05-06 19:24 42.36873 -71.01229 13 ft 8 kts 349°
2026-05-06 19:24 42.36913 -71.01197 12 ft 12 kts 46°
2026-05-06 19:25 42.36985 -71.01112 12 ft 15 kts 33°
2026-05-06 19:25 42.37099 -71.01036 11 ft 24 kts 26°
2026-05-06 19:25 42.37248 -71.00938 11 ft 23 kts 25°
2026-05-06 19:25 42.37397 -71.00857 10 ft 23 kts 19°
2026-05-06 19:26 42.37545 -71.00786 16 ft 22 kts 19°
2026-05-06 19:26 42.37687 -71.00718 20 ft 22 kts 19°
2026-05-06 19:26 42.37801 -71.00662 23 ft 14 kts 22°
2026-05-06 19:26 42.37811 -71.00656 23 ft 0 kts 27°
2026-05-06 19:27 42.37836 -71.00626 22 ft 10 kts 54°
2026-05-06 19:27 42.37836 -71.00548 22 ft 12 kts 107°
2026-05-06 19:27 42.37773 -71.00477 19 ft 13 kts 182°
2026-05-06 19:27 42.37665 -71.00530 19 ft 39 kts 200°
2026-05-06 19:28 42.37105 -71.00796 10 ft 128 kts 198°
2026-05-06 19:28 42.36089 -71.01290 356 ft 174 kts 201°
2026-05-06 19:28 42.34952 -71.01863 929 ft 172 kts 187°
2026-05-06 19:28 42.33890 -71.01374 1194 ft 165 kts 150°
2026-05-06 19:29 42.33094 -71.00281 1396 ft 163 kts 139°
2026-05-06 19:29 42.32356 -70.99008 1887 ft 180 kts 139°
2026-05-06 19:29 42.31715 -70.97472 2588 ft 197 kts 120°
2026-05-06 19:29 42.31363 -70.95669 3138 ft 204 kts 112°
2026-05-06 19:30 42.31454 -70.93718 3972 ft 211 kts 89°
2026-05-06 19:30 42.31728 -70.91739 4610 ft 221 kts 89°
2026-05-06 19:30 42.32018 -70.89596 5082 ft 241 kts 89°
2026-05-06 19:30 42.32336 -70.87306 5488 ft 259 kts 88°
2026-05-06 19:31 42.32683 -70.84797 5730 ft 285 kts 86°
2026-05-06 19:31 42.33053 -70.82058 6048 ft 304 kts 90°
2026-05-06 19:31 42.32091 -70.76856 7402 ft 284 kts 129°
2026-05-06 19:32 42.31132 -70.74516 8172 ft 285 kts 133°
2026-05-06 19:32 42.29842 -70.72638 8891 ft 264 kts 159°
2026-05-06 19:32 42.28202 -70.71756 9706 ft 248 kts 178°
2026-05-06 19:32 42.26515 -70.71659 10352 ft 244 kts 193°
2026-05-06 19:33 42.24798 -70.72014 10840 ft 254 kts 197°
2026-05-06 19:33 42.23041 -70.72450 11475 ft 259 kts 197°
2026-05-06 19:33 42.21309 -70.73080 12166 ft 257 kts 211°
2026-05-06 19:33 42.19867 -70.74462 12907 ft 255 kts 226°
2026-05-06 19:34 42.18726 -70.76317 13274 ft 272 kts 238°
2026-05-06 19:34 42.18002 -70.78793 13452 ft 298 kts 253°
2026-05-06 19:34 42.17598 -70.81633 13617 ft 319 kts 256°
2026-05-06 19:34 42.17215 -70.84667 13736 ft 337 kts 256°
2026-05-06 19:35 42.16805 -70.87847 13946 ft 350 kts 256°
2026-05-06 19:35 42.16371 -70.91106 14372 ft 356 kts 256°
2026-05-06 19:35 42.15930 -70.94399 14924 ft 358 kts 257°
2026-05-06 19:35 42.15573 -70.97744 15448 ft 362 kts 259°
2026-05-06 19:36 42.15272 -71.01133 15911 ft 366 kts 260°
2026-05-06 19:36 42.14990 -71.04505 15983 ft 367 kts 261°
2026-05-06 19:36 42.14701 -71.07943 16005 ft 371 kts 261°
2026-05-06 19:36 42.14406 -71.11392 16003 ft 370 kts 260°
2026-05-06 19:37 42.14105 -71.14837 16012 ft 370 kts 260°
2026-05-06 19:37 42.13799 -71.18287 16005 ft 371 kts 260°
2026-05-06 19:37 42.13487 -71.21745 16011 ft 371 kts 260°
2026-05-06 19:37 42.13175 -71.25186 16014 ft 372 kts 260°
2026-05-06 19:38 42.12860 -71.28647 16009 ft 372 kts 260°
2026-05-06 19:38 42.12544 -71.32105 16007 ft 372 kts 260°
2026-05-06 19:38 42.12226 -71.35565 16009 ft 372 kts 260°
2026-05-06 19:38 42.11908 -71.39015 16007 ft 371 kts 260°
2026-05-06 19:39 42.11588 -71.42472 16008 ft 371 kts 260°
2026-05-06 19:39 42.11273 -71.45867 16026 ft 371 kts 260°
2026-05-06 19:39 42.10951 -71.49322 16030 ft 371 kts 260°
2026-05-06 19:39 42.10629 -71.52770 16027 ft 371 kts 260°
2026-05-06 19:40 42.10305 -71.56224 16034 ft 371 kts 260°
2026-05-06 19:40 42.09982 -71.59663 16027 ft 371 kts 260°
2026-05-06 19:40 42.09658 -71.63107 16033 ft 371 kts 260°
2026-05-06 19:40 42.09332 -71.66554 16021 ft 371 kts 260°
2026-05-06 19:41 42.09005 -71.69992 16002 ft 371 kts 260°
2026-05-06 19:41 42.08633 -71.73378 16001 ft 370 kts 257°
2026-05-06 19:41 42.08153 -71.76777 15997 ft 369 kts 256°
2026-05-06 19:41 42.07638 -71.80159 16029 ft 370 kts 256°
2026-05-06 19:42 42.07111 -71.83554 16023 ft 372 kts 256°
2026-05-06 19:42 42.06585 -71.86968 16010 ft 374 kts 256°
2026-05-06 19:42 42.06063 -71.90392 16001 ft 373 kts 256°
2026-05-06 19:42 42.05546 -71.93812 15996 ft 372 kts 256°
2026-05-06 19:43 42.05037 -71.97206 15994 ft 370 kts 256°
2026-05-06 19:43 42.04529 -72.00596 16009 ft 368 kts 256°
2026-05-06 19:43 42.04024 -72.03965 16018 ft 367 kts 256°
2026-05-06 19:43 42.03518 -72.07338 16010 ft 369 kts 256°
2026-05-06 19:44 42.03009 -72.10726 15999 ft 370 kts 256°
2026-05-06 19:44 42.02503 -72.14079 16005 ft 371 kts 256°
2026-05-06 19:44 42.01990 -72.17479 16003 ft 371 kts 257°
2026-05-06 19:44 42.01475 -72.20883 16004 ft 371 kts 256°
2026-05-06 19:45 42.00959 -72.24286 16001 ft 371 kts 256°
2026-05-06 19:45 42.00443 -72.27690 16002 ft 372 kts 256°
2026-05-06 19:45 41.99925 -72.31094 15980 ft 372 kts 256°
2026-05-06 19:45 41.99404 -72.34505 15975 ft 372 kts 256°
2026-05-06 19:46 41.98883 -72.37914 15996 ft 373 kts 256°
2026-05-06 19:46 41.98360 -72.41331 15997 ft 373 kts 256°
2026-05-06 19:46 41.97837 -72.44742 15989 ft 374 kts 256°
2026-05-06 19:46 41.97311 -72.48161 15996 ft 373 kts 256°
2026-05-06 19:47 41.96784 -72.51580 15991 ft 374 kts 256°
2026-05-06 19:47 41.96256 -72.54998 15987 ft 374 kts 256°
2026-05-06 19:47 41.95734 -72.58379 15991 ft 374 kts 256°
2026-05-06 19:47 41.95203 -72.61805 15993 ft 374 kts 256°
2026-05-06 19:48 41.94672 -72.65223 15988 ft 375 kts 256°
2026-05-06 19:48 41.94135 -72.68656 15994 ft 375 kts 256°
2026-05-06 19:48 41.93474 -72.72040 15985 ft 375 kts 252°
2026-05-06 19:48 41.92693 -72.75371 16000 ft 374 kts 250°
2026-05-06 19:49 41.91873 -72.78689 15996 ft 375 kts 250°
2026-05-06 19:49 41.91046 -72.82003 15991 ft 376 kts 250°
2026-05-06 19:49 41.90220 -72.85341 15980 ft 376 kts 250°
2026-05-06 19:49 41.89405 -72.88671 15991 ft 374 kts 251°
2026-05-06 19:50 41.88600 -72.91989 15993 ft 374 kts 251°
2026-05-06 19:50 41.87809 -72.95262 15995 ft 374 kts 251°
2026-05-06 19:50 41.87008 -72.98581 15983 ft 373 kts 251°
2026-05-06 19:50 41.86212 -73.01885 15994 ft 372 kts 251°
2026-05-06 19:51 41.85418 -73.05182 16003 ft 372 kts 251°
2026-05-06 19:51 41.84620 -73.08491 16008 ft 373 kts 251°
2026-05-06 19:51 41.83819 -73.11810 15998 ft 375 kts 251°
2026-05-06 19:51 41.83014 -73.15140 16012 ft 375 kts 251°
2026-05-06 19:52 41.82208 -73.18468 16014 ft 376 kts 251°
2026-05-06 19:52 41.81399 -73.21804 16005 ft 377 kts 251°
2026-05-06 19:52 41.80599 -73.25101 16003 ft 377 kts 251°
2026-05-06 19:52 41.79786 -73.28440 16002 ft 377 kts 251°
2026-05-06 19:53 41.78973 -73.31780 15990 ft 377 kts 251°
2026-05-06 19:53 41.78159 -73.35118 15982 ft 376 kts 251°
2026-05-06 19:53 41.77346 -73.38444 15982 ft 375 kts 251°
2026-05-06 19:53 41.76536 -73.41757 15980 ft 374 kts 251°
2026-05-06 19:54 41.75724 -73.45070 15973 ft 374 kts 251°
2026-05-06 19:54 41.74911 -73.48381 15973 ft 375 kts 251°
2026-05-06 19:54 41.74094 -73.51705 15970 ft 375 kts 250°
2026-05-06 19:54 41.73276 -73.55022 15977 ft 376 kts 251°
2026-05-06 19:55 41.72457 -73.58353 15973 ft 377 kts 250°
2026-05-06 19:55 41.71645 -73.61646 15974 ft 379 kts 251°
2026-05-06 19:55 41.70822 -73.64981 15961 ft 374 kts 250°
2026-05-06 19:55 41.70010 -73.68263 15955 ft 370 kts 250°
2026-05-06 19:56 41.69198 -73.71541 15967 ft 372 kts 250°
2026-05-06 19:56 41.68382 -73.74832 15957 ft 373 kts 250°
2026-05-06 19:56 41.67563 -73.78129 15589 ft 374 kts 250°
2026-05-06 19:56 41.66750 -73.81398 15031 ft 368 kts 250°
2026-05-06 19:57 41.65962 -73.84620 14415 ft 363 kts 251°
2026-05-06 19:57 41.65202 -73.87826 13781 ft 359 kts 251°
2026-05-06 19:57 41.64458 -73.90994 13116 ft 355 kts 251°
2026-05-06 19:57 41.63722 -73.94129 12439 ft 351 kts 251°
2026-05-06 19:58 41.63003 -73.97178 11815 ft 346 kts 251°
2026-05-06 19:58 41.62282 -74.00224 11238 ft 343 kts 251°
2026-05-06 19:58 41.61576 -74.03198 11090 ft 329 kts 251°
2026-05-06 19:58 41.60900 -74.06047 10927 ft 314 kts 251°
2026-05-06 19:59 41.60252 -74.08772 10798 ft 301 kts 251°
2026-05-06 19:59 41.59628 -74.11394 10664 ft 290 kts 251°
2026-05-06 19:59 41.59026 -74.13919 10545 ft 280 kts 251°
2026-05-06 19:59 41.58445 -74.16351 10439 ft 270 kts 251°
2026-05-06 20:00 41.57886 -74.18690 10328 ft 257 kts 251°
2026-05-06 20:00 41.57357 -74.20903 10219 ft 245 kts 251°
2026-05-06 20:00 41.56849 -74.23024 10119 ft 235 kts 251°
2026-05-06 20:00 41.56355 -74.25081 10037 ft 232 kts 251°
2026-05-06 20:01 41.55858 -74.27147 9886 ft 237 kts 250°
2026-05-06 20:01 41.55357 -74.29229 9658 ft 239 kts 251°
2026-05-06 20:01 41.54814 -74.31339 9235 ft 243 kts 244°
2026-05-06 20:01 41.53772 -74.33123 8857 ft 247 kts 224°
2026-05-06 20:02 41.52307 -74.34337 8548 ft 251 kts 207°
2026-05-06 20:02 41.50653 -74.35110 8178 ft 254 kts 203°
2026-05-06 20:02 41.48951 -74.35807 7813 ft 256 kts 202°
2026-05-06 20:02 41.47272 -74.36495 7478 ft 250 kts 202°
2026-05-06 20:03 41.45618 -74.37191 7121 ft 248 kts 203°
2026-05-06 20:03 41.43959 -74.37901 7032 ft 252 kts 203°
2026-05-06 20:03 41.42291 -74.38616 6964 ft 250 kts 203°
2026-05-06 20:03 41.40650 -74.39320 6957 ft 247 kts 204°
2026-05-06 20:04 41.39000 -74.40031 6954 ft 252 kts 203°
2026-05-06 20:04 41.37323 -74.40753 6957 ft 253 kts 203°
2026-05-06 20:04 41.35680 -74.41458 6960 ft 250 kts 203°
2026-05-06 20:04 41.34037 -74.42163 6955 ft 247 kts 203°
2026-05-06 20:05 41.32415 -74.42860 6957 ft 245 kts 203°
2026-05-06 20:05 41.30792 -74.43557 6956 ft 246 kts 203°
2026-05-06 20:05 41.29146 -74.44265 6975 ft 250 kts 203°
2026-05-06 20:05 41.27484 -74.44978 6964 ft 251 kts 204°
2026-05-06 20:06 41.25838 -74.45681 6975 ft 249 kts 204°
2026-05-06 20:06 41.24189 -74.46386 6975 ft 249 kts 204°
2026-05-06 20:06 41.22536 -74.47086 6971 ft 249 kts 201°
2026-05-06 20:06 41.20777 -74.47166 6974 ft 261 kts 174°
2026-05-06 20:07 41.19008 -74.46488 6788 ft 268 kts 168°
2026-05-06 20:07 41.17265 -74.45676 6566 ft 265 kts 167°
2026-05-06 20:07 41.15522 -74.44868 6203 ft 267 kts 167°
2026-05-06 20:07 41.13859 -74.43822 5898 ft 275 kts 147°
2026-05-06 20:08 41.12602 -74.41902 5797 ft 277 kts 129°
2026-05-06 20:08 41.11539 -74.39768 5786 ft 276 kts 128°
2026-05-06 20:08 41.10499 -74.37613 5790 ft 281 kts 127°
2026-05-06 20:08 41.09450 -74.35419 5708 ft 284 kts 127°
2026-05-06 20:09 41.08403 -74.33221 5508 ft 281 kts 128°
2026-05-06 20:09 41.07363 -74.31022 5164 ft 282 kts 127°
2026-05-06 20:09 41.06325 -74.28829 5058 ft 281 kts 128°
2026-05-06 20:09 41.05287 -74.26623 5002 ft 279 kts 127°
2026-05-06 20:10 41.04302 -74.24500 4966 ft 269 kts 127°
2026-05-06 20:10 41.03363 -74.22441 4979 ft 255 kts 127°
2026-05-06 20:10 41.02461 -74.20469 4973 ft 247 kts 128°
2026-05-06 20:10 41.01581 -74.18535 4869 ft 245 kts 128°
2026-05-06 20:11 41.00711 -74.16600 4713 ft 243 kts 128°
2026-05-06 20:11 40.99687 -74.14880 4432 ft 236 kts 145°
2026-05-06 20:11 40.98469 -74.13436 4159 ft 235 kts 147°
2026-05-06 20:11 40.97236 -74.12019 3990 ft 233 kts 147°
2026-05-06 20:12 40.96024 -74.10647 3974 ft 227 kts 147°
2026-05-06 20:12 40.94814 -74.09290 3990 ft 230 kts 147°
2026-05-06 20:12 40.93575 -74.07942 3987 ft 231 kts 154°
2026-05-06 20:12 40.92163 -74.07212 3992 ft 214 kts 175°
2026-05-06 20:13 40.90709 -74.06807 3973 ft 213 kts 177°
2026-05-06 20:13 40.89265 -74.06419 3812 ft 211 kts 177°
2026-05-06 20:13 40.87830 -74.06036 3424 ft 211 kts 177°
2026-05-06 20:13 40.86401 -74.05659 3115 ft 208 kts 177°
2026-05-06 20:14 40.84972 -74.05292 3021 ft 210 kts 177°
2026-05-06 20:14 40.83525 -74.04931 2986 ft 212 kts 179°
2026-05-06 20:14 40.82149 -74.05129 2972 ft 193 kts 217°
2026-05-06 20:14 40.81146 -74.06261 2986 ft 193 kts 218°
2026-05-06 20:15 40.79835 -74.06645 2986 ft 203 kts 177°
2026-05-06 20:15 40.78618 -74.05627 3007 ft 226 kts 135°
2026-05-06 20:15 40.77755 -74.03823 2958 ft 234 kts 134°
2026-05-06 20:15 40.76583 -74.02538 2992 ft 215 kts 168°
2026-05-06 20:16 40.75155 -74.02375 3009 ft 199 kts 201°
2026-05-06 20:16 40.74057 -74.03297 3006 ft 190 kts 234°
2026-05-06 20:16 40.73648 -74.04921 3012 ft 193 kts 267°
2026-05-06 20:16 40.73864 -74.06698 3006 ft 199 kts 276°
2026-05-06 20:17 40.74168 -74.08487 2992 ft 201 kts 277°
2026-05-06 20:17 40.74479 -74.10281 2997 ft 201 kts 277°
2026-05-06 20:17 40.74782 -74.12074 2974 ft 199 kts 278°
2026-05-06 20:17 40.75068 -74.13798 2990 ft 196 kts 278°
2026-05-06 20:18 40.75357 -74.15606 2982 ft 198 kts 277°
2026-05-06 20:18 40.75643 -74.17381 2984 ft 198 kts 277°
2026-05-06 20:18 40.75950 -74.19151 2987 ft 201 kts 277°
2026-05-06 20:18 40.76264 -74.20924 2996 ft 200 kts 277°
2026-05-06 20:19 40.76583 -74.22708 2975 ft 195 kts 277°
2026-05-06 20:19 40.76886 -74.24428 3001 ft 195 kts 277°
2026-05-06 20:19 40.77427 -74.26093 2962 ft 208 kts 304°
2026-05-06 20:19 40.78688 -74.27137 2988 ft 227 kts 337°
2026-05-06 20:20 40.80268 -74.27455 2980 ft 233 kts 347°
2026-05-06 20:20 40.81883 -74.27670 2979 ft 232 kts 347°
2026-05-06 20:20 40.83385 -74.27848 2993 ft 230 kts 347°
2026-05-06 20:20 40.84986 -74.28019 2974 ft 229 kts 348°
2026-05-06 20:21 40.86579 -74.28042 2964 ft 234 kts
2026-05-06 20:21 40.88081 -74.27158 2983 ft 240 kts 25°
2026-05-06 20:21 40.89529 -74.25979 3004 ft 246 kts 27°
2026-05-06 20:21 40.90980 -74.24768 2989 ft 245 kts 27°
2026-05-06 20:22 40.92410 -74.23548 2970 ft 244 kts 28°
2026-05-06 20:22 40.93840 -74.22357 2976 ft 243 kts 27°
2026-05-06 20:22 40.95270 -74.21157 2969 ft 245 kts 27°
2026-05-06 20:22 40.96681 -74.19954 2962 ft 246 kts 32°
2026-05-06 20:23 40.97811 -74.18241 2982 ft 252 kts 64°
2026-05-06 20:23 40.98154 -74.16023 2974 ft 246 kts 96°
2026-05-06 20:23 40.97956 -74.13751 2995 ft 252 kts 102°
2026-05-06 20:23 40.97706 -74.11457 2993 ft 251 kts 103°
2026-05-06 20:24 40.97465 -74.09181 2992 ft 249 kts 102°
2026-05-06 20:24 40.97193 -74.06927 2974 ft 246 kts 112°
2026-05-06 20:24 40.96361 -74.05077 2989 ft 227 kts 147°
2026-05-06 20:24 40.95035 -74.04163 2991 ft 210 kts 174°
2026-05-06 20:25 40.93615 -74.03735 2972 ft 209 kts 177°
2026-05-06 20:25 40.92206 -74.03357 2972 ft 210 kts 176°
2026-05-06 20:25 40.90772 -74.03002 2983 ft 210 kts 177°
2026-05-06 20:25 40.89323 -74.02652 2999 ft 213 kts 177°
2026-05-06 20:26 40.87859 -74.02296 2975 ft 215 kts 178°
2026-05-06 20:26 40.86417 -74.02280 2974 ft 201 kts 201°
2026-05-06 20:26 40.85106 -74.02859 2981 ft 198 kts 209°
2026-05-06 20:26 40.83878 -74.03661 2978 ft 195 kts 211°
2026-05-06 20:27 40.82680 -74.04485 2977 ft 194 kts 213°
2026-05-06 20:27 40.81470 -74.05294 2993 ft 196 kts 213°
2026-05-06 20:27 40.80273 -74.06100 3000 ft 193 kts 212°
2026-05-06 20:27 40.79117 -74.06896 2994 ft 180 kts 213°
2026-05-06 20:28 40.78053 -74.07599 2983 ft 163 kts 212°
2026-05-06 20:28 40.77110 -74.08196 2971 ft 138 kts 212°
2026-05-06 20:28 40.76279 -74.08703 3002 ft 128 kts 212°
2026-05-06 20:28 40.75499 -74.09180 3000 ft 121 kts 212°
2026-05-06 20:29 40.74781 -74.09737 2986 ft 123 kts 211°
2026-05-06 20:29 40.73410 -74.08627 2404 ft 154 kts 124°